FW8140 Weather Reports


Display with metric or nautical units.
time (UTC)temp
F
wind
direction
speed
MPH
gust
MPH
rain 1hr
in
rain 24hr
in
rain mn
in
humidity
%
barometer
mb
20260503043057 68 0 0.0 0.0 0.00 0.36 0.00 99 1015.1
20260503041554 68 0 0.0 0.0 0.00 0.36 0.00 99 1014.9
20260503040054 68 0 0.0 0.0 0.00 0.36 0.00 99 1014.5
20260503034553 68 0 0.0 0.0 0.00 0.36 0.36 99 1014.5
20260503033052 68 0 0.0 2.0 0.00 0.36 0.36 99 1013.9
20260503031552 68 0 0.0 0.0 0.00 0.36 0.36 99 1013.2
20260503030052 68 0 0.0 1.0 0.00 0.36 0.36 99 1013.7
20260503024550 69 0 0.0 2.0 0.00 0.36 0.36 99 1013.7
20260503023105 69 0 0.0 1.0 0.00 0.36 0.36 99 1013.8
20260503021602 69 0 0.0 2.0 0.00 0.36 0.36 99 1013.6
20260503020057 69 0 0.0 3.0 0.00 0.36 0.36 99 1013.4
20260503014552 69 322 0.0 2.0 0.01 0.36 0.36 99 1012.9
20260503013059 69 0 0.0 6.0 0.02 0.36 0.36 99 1012.3
20260503011608 69 316 1.0 5.0 0.02 0.36 0.36 99 1012.4
20260503010058 70 322 0.0 4.0 0.02 0.36 0.36 98 1012.2
20260503004555 70 117 0.0 6.0 0.01 0.35 0.35 98 1012.0
20260503003055 70 136 3.0 7.0 0.00 0.34 0.34 98 1011.3
20260503001619 70 35 2.0 5.0 0.00 0.34 0.34 98 1011.7
20260503000126 70 109 1.0 5.0 0.00 0.34 0.34 98 1011.9
20260502234602 70 178 1.0 3.0 0.00 0.34 0.34 98 1012.4
20260502233053 70 330 0.0 2.0 0.00 0.34 0.34 98 1012.1
20260502231553 70 0 0.0 3.0 0.03 0.34 0.34 98 1012.3
20260502230049 70 0 0.0 3.0 0.25 0.34 0.34 97 1012.3
20260502224555 69 0 0.0 0.0 0.34 0.34 0.34 97 1011.8
20260502223052 69 0 0.0 2.0 0.34 0.34 0.34 96 1011.9
20260502221607 70 314 3.0 10.0 0.31 0.31 0.31 95 1012.2
20260502214552 78 302 9.0 18.0 0.00 0.00 0.00 75 1011.9
20260502213053 83 317 5.0 12.0 0.00 0.00 0.00 71 1011.5
20260502211551 84 321 3.0 9.0 0.00 0.00 0.00 69 1011.0
20260502210108 84 314 1.0 7.0 0.00 0.00 0.00 68 1010.9
20260502204550 85 300 3.0 12.0 0.00 0.00 0.00 65 1010.8
20260502203054 86 345 4.0 10.0 0.00 0.00 0.00 65 1010.8
20260502201552 87 316 5.0 14.0 0.00 0.00 0.00 63 1010.8
20260502200115 88 296 2.0 9.0 0.00 0.00 0.00 64 1010.6
20260502194555 88 289 2.0 11.0 0.00 0.00 0.00 63 1010.8
20260502193054 88 304 3.0 14.0 0.00 0.00 0.00 61 1010.8
20260502191604 88 25 2.0 7.0 0.00 0.00 0.00 62 1010.9
20260502190058 88 303 2.0 17.0 0.00 0.00 0.00 62 1011.1
20260502184557 89 129 3.0 8.0 0.00 0.00 0.00 61 1011.0
20260502183105 89 313 3.0 13.0 0.00 0.00 0.00 62 1011.1
20260502181604 90 255 4.0 17.0 0.00 0.00 0.00 62 1011.3
20260502180103 91 325 3.0 12.0 0.00 0.00 0.00 60 1011.1
20260502163058 88 244 2.0 14.0 0.00 0.00 0.00 67 1012.0
20260502161604 88 338 5.0 13.0 0.00 0.00 0.00 67 1012.0
20260502151611 87 259 3.0 14.0 0.00 0.00 0.00 70 1012.0
20260502130105 73 185 2.0 11.0 0.00 0.00 0.00 96 1011.4
20260502123052 69 137 2.0 4.0 0.00 0.00 0.00 99 1011.3
20260502121553 68 87 1.0 4.0 0.00 0.00 0.00 99 1011.2
20260502114552 65 97 1.0 2.0 0.00 0.00 0.00 99 1011.2
20260502113055 65 34 0.0 2.0 0.00 0.00 0.00 99 1011.1
20260502111603 64 32 0.0 3.0 0.00 0.00 0.00 98 1011.1
20260502104555 64 0 0.0 0.0 0.00 0.00 0.00 98 1011.2
20260502103105 64 11 0.0 1.0 0.00 0.00 0.00 98 1011.3
20260502101603 63 0 0.0 2.0 0.00 0.00 0.00 98 1011.4
20260502090115 62 0 0.0 0.0 0.00 0.00 0.00 98 1011.5
20260502070106 63 0 0.0 0.0 0.00 0.00 0.00 97 1011.6
20260502064607 63 0 0.0 0.0 0.00 0.00 0.00 97 1011.6
20260502063054 63 0 0.0 0.0 0.00 0.00 0.00 97 1011.9
20260502061551 64 0 0.0 0.0 0.00 0.00 0.00 96 1011.9
20260502060055 64 0 0.0 0.0 0.00 0.00 0.00 96 1012.0
20260502054557 65 0 0.0 0.0 0.00 0.00 0.00 96 1012.1
20260502053052 66 0 0.0 0.0 0.00 0.00 0.00 96 1012.2
20260502051548 66 0 0.0 0.0 0.00 0.00 0.00 96 1012.2
20260502050055 66 0 0.0 0.0 0.00 0.00 0.00 95 1012.3
20260502044556 66 0 0.0 0.0 0.00 0.00 0.00 95 1012.3